カタログに戻る

COSMOS 1188 DEB

LostHEO
NORAD 27895·DEBRIS·🇷🇺 Russia

打ち上げ Jun 14, 1980 から Plesetsk Cosmodrome

Loading…

次のパス (今後24時間)

TLE

古いSource: Space-Track

元期: Jun 28, 2011, 23:27 UTC

1 27895U 80050J   11179.97712528 -.00000336  00000-0  10000-3 0  9991
2 27895  70.9508  45.2971 6168865 351.5663   1.7849  1.94887562109682

AllMySatでCOSMOS 1188 DEBをリアルタイム追跡

Download on the App Store